Location: Newark
(45.5000°N, 11.4167°E)
Time: 17:39:28
(UTC+00:00)

Explorer 11/Cluster Stage 4 - Pass Details

Date: 28 August 2019
Orbit: 467 x 1259 km, 28.8° (Epoch: 15 October)

Event Time Altitude Azimuth Distance (km) Brightness Sun altitude
Rises 06:55:07 0° 207° (SSW) 3,669 9.9 24.3°
Reaches altitude 10° 06:59:28 10° 180° (S) 2,899 9.7 25.0°
Maximum altitude 07:02:25 13° 156° (SSE) 2,791 10.0 25.5°
Drops below altitude 10° 07:05:31 10° 132° (SE) 3,091 10.8 26.1°
Sets 07:10:29 0° 107° (ESE) 4,158 11.6 26.9°
